Hilton Head Island, SC

10:00 PM EDT on June 26, 2017 (GMT -0400)
Hilton Head

Weather History for KHXD - December, 2013

Change the Weather History Date:

Sunday, December 22, 2013

  Actual Average Record
Temperature  
Mean Temperature 66 °F -  
Max Temperature 71 °F 61 °F 79 °F (1970)
Min Temperature 62 °F 39 °F 19 °F (1976)
Cooling Degree Days 2    
Growing Degree Days 16 (Base 50)    
Moisture  
Dew Point 66 °F    
Average Humidity 97    
Maximum Humidity 100    
Minimum Humidity 88    
Precipitation  
Precipitation 0.00 in - - ()
Sea Level Pressure  
Sea Level Pressure 30.12 in    
Wind  
Wind Speed 6 mph (South)    
Max Wind Speed 12 mph    
Max Gust Speed 23 mph    
Visibility 5 miles    
Events Fog    
Averages and records for this station are not official NWS values.
T = Trace of Precipitation, MM = Missing Value Source: NWS Daily Summary

Daily Weather History Graph

Daily Weather History Graph

Search for Another Location

Airport or City:

Trip Planner

Search our weather history database for the weather conditions in past years. The results will help you decide how hot, cold, wet, or windy it might be!

Date:

Astronomy

Dec. 22, 2013 Rise Set
Actual Time 7:20 AM EST 5:22 PM EST
Civil Twilight 6:53 AM EST 5:49 PM EST
Nautical Twilight 6:22 AM EST 6:20 PM EST
Astronomical Twilight 5:52 AM EST 6:50 PM EST
Moon 10:17 PM EST (12/22) 10:30 AM EST (12/22)
Length of Visible Light 10h 56m
Length of Day
10h 02m
Waning Gibbous, 77% of the Moon is Illuminated
Dec 22
Waning Gibbous
Dec 25
Last Quarter
Jan 1
New
Jan 7
First Quarter
Jan 15
Full

Hourly Weather History & Observations

Time (EST) Temp. Dew Point Humidity Pressure Visibility Wind Dir Wind Speed Gust Speed Precip Events Conditions
12:15 AM 66.2 °F 66.2 °F 100% 30.11 in 5.0 mi SSE 4.6 mph - 0.00 in   Clear
12:35 AM 66.2 °F 66.2 °F 100% 30.11 in 5.0 mi SSE 5.8 mph - 0.00 in   Clear
12:55 AM 66.2 °F 64.4 °F 94% 30.11 in 5.0 mi SSE 6.9 mph - 0.00 in   Clear
1:15 AM 66.2 °F 66.2 °F 100% 30.11 in 5.0 mi SSE 6.9 mph - 0.00 in   Clear
1:35 AM 66.2 °F 66.2 °F 100% 30.11 in 5.0 mi South 6.9 mph - 0.00 in   Clear
1:55 AM 66.2 °F 66.2 °F 100% 30.11 in 5.0 mi SSE 5.8 mph - 0.00 in   Partly Cloudy
2:15 AM 66.2 °F 66.2 °F 100% 30.11 in 5.0 mi SSE 5.8 mph - 0.00 in   Scattered Clouds
2:35 AM 66.2 °F 66.2 °F 100% 30.11 in 5.0 mi South 6.9 mph - 0.00 in   Clear
2:55 AM 66.2 °F 66.2 °F 100% 30.11 in 5.0 mi South 6.9 mph - 0.00 in   Partly Cloudy
3:15 AM 66.2 °F 66.2 °F 100% 30.10 in 5.0 mi SSE 8.1 mph - 0.00 in   Partly Cloudy
3:35 AM 66.2 °F 66.2 °F 100% 30.10 in 5.0 mi South 4.6 mph - 0.00 in   Mostly Cloudy
3:55 AM 66.2 °F 66.2 °F 100% 30.10 in 5.0 mi South 4.6 mph - 0.00 in   Mostly Cloudy
4:15 AM 66.2 °F 66.2 °F 100% 30.11 in 4.0 mi South 6.9 mph - 0.00 in   Overcast
4:35 AM 66.2 °F 66.2 °F 100% 30.10 in 3.0 mi South 5.8 mph - 0.00 in   Overcast
4:55 AM 68.0 °F 68.0 °F 100% 30.10 in 1.5 mi SSE 6.9 mph - 0.00 in   Overcast
5:15 AM 66.2 °F 66.2 °F 100% 30.10 in 1.0 mi South 4.6 mph - 0.00 in   Overcast
5:35 AM 66.2 °F 66.2 °F 100% 30.10 in 1.0 mi South 6.9 mph - 0.00 in   Overcast
6:50 AM 62.6 °F 62.6 °F 100% 30.12 in 0.2 mi South 6.9 mph - N/A Fog Fog
7:50 AM 64.4 °F 64.4 °F 100% 30.13 in 0.2 mi Calm Calm - N/A Fog Fog
8:50 AM 66.2 °F 66.2 °F 100% 30.13 in 0.2 mi Calm Calm - N/A Fog Fog
9:30 AM 66.2 °F 66.2 °F 100% 30.14 in 1.0 mi South 6.9 mph - N/A   Mist
9:50 AM 68.0 °F 68.0 °F 100% 30.15 in 0.5 mi South 6.9 mph - N/A Fog Fog
10:50 AM 68.0 °F 68.0 °F 100% 30.15 in 2.0 mi South 6.9 mph - N/A   Overcast
11:50 AM 69.8 °F 66.2 °F 88% 30.15 in 6.0 mi SSW 10.4 mph 18.4 mph N/A   Overcast
12:50 PM 69.8 °F 66.2 °F 88% 30.12 in 8.0 mi SSW 8.1 mph 17.3 mph N/A   Mostly Cloudy
1:50 PM 71.6 °F 68.0 °F 88% 30.11 in 10.0 mi South 6.9 mph 16.1 mph N/A   Scattered Clouds
2:50 PM 71.6 °F 68.0 °F 88% 30.10 in 10.0 mi South 9.2 mph 13.8 mph N/A   Partly Cloudy
3:50 PM 69.8 °F 66.2 °F 88% 30.11 in 10.0 mi South 9.2 mph 13.8 mph N/A   Partly Cloudy
4:50 PM 68.0 °F 66.2 °F 94% 30.11 in 6.0 mi South 6.9 mph - N/A   Scattered Clouds
5:50 PM 68.0 °F 66.2 °F 94% 30.11 in 6.0 mi South 6.9 mph - N/A   Partly Cloudy
6:50 PM 68.0 °F 66.2 °F 94% 30.12 in 5.0 mi South 4.6 mph - N/A   Clear
8:15 PM 66.2 °F 66.2 °F 100% 30.13 in 5.0 mi SSE 8.1 mph - 0.00 in   Partly Cloudy
8:35 PM 68.0 °F 66.2 °F 94% 30.13 in 5.0 mi SSE 8.1 mph - 0.00 in   Clear
8:55 PM 66.2 °F 66.2 °F 100% 30.13 in 5.0 mi SSE 5.8 mph - 0.00 in   Clear
9:15 PM 66.2 °F 66.2 °F 100% 30.14 in 5.0 mi SSE 5.8 mph - 0.00 in   Clear
9:35 PM 66.2 °F 66.2 °F 100% 30.13 in 5.0 mi South 6.9 mph - 0.00 in   Clear
9:55 PM 68.0 °F 66.2 °F 94% 30.13 in 5.0 mi SSE 5.8 mph 19.6 mph 0.00 in   Clear
10:15 PM 68.0 °F 68.0 °F 100% 30.13 in 5.0 mi South 9.2 mph - 0.00 in   Clear
10:35 PM 69.8 °F 68.0 °F 94% 30.13 in 5.0 mi SSE 10.4 mph 16.1 mph 0.00 in   Clear
10:55 PM 69.8 °F 69.8 °F 100% 30.13 in 6.0 mi SSE 11.5 mph 23.0 mph 0.00 in   Clear
11:15 PM 68.0 °F 66.2 °F 94% 30.13 in 5.0 mi SSE 8.1 mph - 0.00 in   Clear
11:35 PM 68.0 °F 66.2 °F 94% 30.14 in 5.0 mi South 6.9 mph - 0.00 in   Clear
11:55 PM 68.0 °F 66.2 °F 94% 30.14 in 5.0 mi South 9.2 mph - 0.00 in   Scattered Clouds